Location: Sangrey
(48.2845°N, 109.8206°W)
Time: 06:07:27
(UTC+00:00)

BlueWalker 3 - Pass Details

Date: 29 November 2022
Orbit: 499 x 517 km, 53.2° (Epoch: 27 January)

Event Time Altitude Azimuth Distance (km) Brightness Sun altitude
Rises 00:49:09 0° 253° (WSW) 2,632 7.7 -12.9°
Reaches altitude 10° 00:51:22 10° 257° (WSW) 1,743 6.2 -13.3°
Maximum altitude 00:55:17 64° 338° (NNW) 574 2.2 -13.9°
Enters shadow 00:57:31 24° 55° (NE) 1,094 3.1 -14.2°
